Location: Peebles
(55.6412°N, 3.1714°W)
Time: 05:37:29
(UTC+01:00)

deb Agena D - Pass Details

Date: 09 July 2022
Orbit: 797 x 980 km, 99.8° (Epoch: 16 August)

Event Time Altitude Azimuth Distance (km) Brightness Sun altitude
Rises 00:03:12 0° 15° (NNE) 3,405 10.4 -10.4°
Reaches altitude 10° 00:05:40 10° 8° (N) 2,491 9.8 -10.5°
Maximum altitude 00:10:41 37° 303° (WNW) 1,332 7.7 -10.7°
Drops below altitude 10° 00:15:54 10° 238° (WSW) 2,589 8.6 -10.9°
Sets 00:18:31 0° 230° (SW) 3,556 9.2 -11.0°
